Location: Haliburton Scout Reserve
(45.0900°N, 78.3200°W)
Time: 19:55:20
(UTC-05:00)

Courier 1B - Pass Details

Date: 06 December 2023
Orbit: 962 x 1209 km, 28.3° (Epoch: 23 February)

Event Time Altitude Azimuth Distance (km) Brightness Sun altitude
Rises 08:35:03 0° 215° (SW) 3,822 10.7 7.3°
Reaches altitude 10° 08:39:39 10° 188° (S) 2,810 10.5 7.9°
Maximum altitude 08:42:22 13° 164° (SSE) 2,588 11.0 8.3°
Drops below altitude 10° 08:45:03 10° 140° (SE) 2,753 12.9 8.6°
Sets 08:49:27 0° 113° (ESE) 3,665 12.0 9.2°
